Location: Gammersfeld
(48.8040°N, 11.0548°E)
Time: 06:36:22
(UTC+00:00)

Daily predictions for brighter satellites

Satellite Brightness Start Highest point End
(mag) Time Altitude Azimuth Time Altitude Azimuth Time Altitude Azimuth
Cosmos 1607 4.1 19:50:34 10° SSW 19:56:33 50° ESE 20:02:30 10° NE
NOSS 2-1 (C) 4.3 19:53:10 10° NW 19:57:23 57° NE 20:03:14 10° SE
Ariane Rocket 3.1 19:55:04 10° SSE 20:00:11 86° WSW 20:05:20 10° NNW
USA 267 4.2 19:55:10 10° ENE 20:00:14 24° SE 20:05:18 10° S
Cosmos 1954 Rocket 4.2 19:56:17 10° NNW 20:01:34 66° ENE 20:06:46 10° SSE
PSLV R/B 4.3 20:02:17 10° N 20:06:24 71° WNW 20:10:32 10° SSW
Cosmos 1980 Rocket 4.3 20:03:59 10° N 20:07:42 17° NE 20:11:23 10° ENE
NOSS 2-1 (D) 4.1 20:03:27 10° NW 20:07:45 66° NE 20:13:48 10° SE
S3M 4.3 20:03:01 10° SSW 20:09:12 72° W 20:15:21 10° N
Cosmos 1697 Rocket 4.2 20:06:11 10° NNW 20:10:55 27° NE 20:15:37 10° ESE
Meteor 2-10 Rocket 4.3 20:06:32 10° NNW 20:11:25 50° W 20:16:14 10° S
SPOT 5 3.1 20:07:43 10° SE 20:11:59 49° ENE 20:16:11 10° N
H-2A R/B 2.9 20:08:42 10° N 20:13:01 56° WNW 20:17:21 10° SSW
Tiangong 2.6 20:13:29 10° WSW 20:15:58 21° S 20:18:23 10° SE
Cosmos 1975 Rocket 3.2 20:12:01 10° S 20:16:28 85° W 20:20:56 10° N
CARTOSAT-1 3.7 20:13:38 10° S 20:17:57 79° WSW 20:22:17 10° NNW
IRAS Rocket 4.3 20:14:03 10° NNE 20:19:42 80° ESE 20:25:16 10° SSW
Cosmos 1656 4.1 20:15:49 10° NNW 20:21:09 51° NE 20:26:30 10° SE
Cosmos 2084 3.2 20:17:44 10° SSW 20:21:31 58° SE 20:25:19 10° NE
USA 276 2.4 20:26:40 10° SW 20:29:29 38° SSE 20:32:18 10° E
Spot 2 Rocket 3.5 20:25:59 10° SSE 20:31:04 78° ENE 20:36:12 10° NNW
ATLAS 2AS CENTAUR R/B 2.8 20:24:28 10° NW 20:31:39 81° SW 20:37:59 12° SSE
Cosmos 1544 Rocket 3.5 20:29:02 10° N 20:33:23 89° WSW 20:37:43 10° S
Meteor 1-24 Rocket 3.7 20:28:41 10° SSW 20:34:00 85° WNW 20:39:28 10° N
USA 234 3.9 20:29:46 10° E 20:36:09 57° NNE 20:42:32 10° NW
Lacrosse 5 2.0 20:31:15 10° WNW 20:36:21 73° SW 20:40:57 13° SE
Cosmos 1371 Rocket 4.3 20:31:16 10° SSW 20:36:30 75° WNW 20:41:49 10° NNE
Cosmos 1452 Rocket 4.1 20:32:24 10° S 20:37:12 37° ESE 20:42:02 10° NE
X-37B 1.1 20:36:53 10° SW 20:39:25 30° SSE 20:41:43 11° ESE
Cosmos 1833 Rocket 3.7 20:36:05 11° SSE 20:40:25 26° ESE 20:45:00 10° NE
Terra 1.9 20:38:02 12° SSE 20:42:25 68° ENE 20:47:10 10° N
FALCON 9 DEB 4.3 20:42:33 10° W 20:45:41 43° N 20:48:50 10° ENE
Cosmos 2184 Rocket 4.1 20:40:05 10° N 20:46:15 67° ENE 20:51:50 13° SSE
Resurs 01 Rocket 3.9 20:46:00 10° SW 20:49:23 21° W 20:52:47 10° NW
Cosmos 724 4.2 20:46:42 10° SSW 20:52:27 69° ESE 20:58:14 10° NE
CZ-4B R/B 4.0 20:53:10 10° NNW 20:55:13 18° WNW 20:57:16 10° WSW
Helios 1A Rocket 3.2 20:51:31 12° S 20:55:18 64° WSW 20:59:23 10° NNW
Lacrosse 5 rocket 2.6 20:56:00 10° WNW 20:59:17 27° SW 21:01:55 14° S
Cosmos 1271 Rocket 3.7 20:56:50 10° NNW 21:00:39 46° W 21:04:25 10° SSW
Cosmos 2082 Rocket 3.8 21:01:01 14° SE 21:03:24 17° E 21:07:00 10° ENE
NOSS 2-1 (E) 4.4 21:01:44 10° NW 21:06:18 58° SW 21:11:18 16° SSE
ERS-1 Rocket 3.4 21:03:41 12° S 21:08:20 59° W 21:13:20 10° NNW
RESURS DK-1 2.4 21:06:11 10° NNW 21:10:20 72° ENE 21:13:07 20° SE
Cosmos 2058 Rocket 4.4 21:11:19 10° N 21:15:07 28° ENE 21:17:48 16° ESE
CZ-2C R/B 3.9 21:11:47 10° NNE 21:16:25 76° WNW 21:20:54 10° SSW
ARIANE 5 R/B 2.8 21:18:10 17° S 21:21:32 69° WSW 21:25:59 10° NNW
Cosmos 1741 Rocket 4.1 21:16:43 10° NNW 21:22:03 79° WSW 21:25:51 20° SSE
Cosmos 968 Rocket 4.4 21:18:41 10° NNW 21:23:34 40° ENE 21:27:23 16° ESE
Cosmos 1825 4.4 21:24:12 11° E 21:25:16 12° E 21:26:45 10° ENE
Cosmos 2344 4.3 21:19:19 10° NW 21:28:01 79° NE 21:38:57 14° SE
SL-8 R/B 3.6 21:24:29 10° W 21:29:17 72° SSW 21:33:27 14° ESE
GP-B 3.7 21:27:18 10° NNE 21:31:33 42° E 21:33:53 23° SE
Cosmos 1455 4.4 21:28:44 10° NW 21:31:38 21° W 21:34:31 10° SW
ADEOS Rocket 4.4 21:33:32 13° ESE 21:39:20 40° ENE 21:46:21 10° N
ASTEX 1 3.5 21:34:42 10° NNE 21:39:41 62° E 21:42:46 23° SSE
COSMOS 2406 3.6 21:37:53 20° S 21:41:32 46° ESE 21:47:00 10° NE
USA 267 3.2 21:37:26 10° ENE 21:44:00 74° SE 21:50:32 10° SW
Cosmos 2369 4.0 21:38:30 10° NNW 21:44:14 64° ENE 21:48:09 21° SE
SL-16 R/B 4.1 21:40:41 10° N 21:45:08 23° NE 21:49:35 10° E
Cosmos 2228 3.9 21:45:18 10° NNW 21:49:19 42° W 21:52:05 18° SSW
Cosmos 962 Rocket 4.5 21:45:28 10° N 21:51:43 82° E 21:55:52 23° SSE
Nadezhda 1 Rocket 4.1 21:47:09 13° SSW 21:52:35 72° W 21:58:40 10° N
Cosmos 1980 Rocket 2.4 21:47:09 10° NNW 21:52:52 66° ENE 21:56:37 22° SE
Cosmos 1606 Rocket 3.9 21:50:11 10° NNW 21:54:26 59° W 21:56:56 24° SSW
Cosmos 1697 Rocket 2.8 21:49:48 10° NNW 21:55:23 68° WSW 21:58:44 25° S
Cosmos 1892 3.1 21:55:58 32° SE 21:57:15 45° E 22:00:52 10° NNE
SJ 16-02 3.8 21:55:43 10° NNE 21:58:09 14° NE 22:00:32 10° E
Cosmos 2084 Rocket 3.4 21:56:42 10° NW 22:00:34 71° NE 22:02:43 26° SE
Meteor 1-11 4.3 21:57:30 24° S 22:00:56 66° E 22:06:29 10° NNE
USA 276 2.1 22:02:04 10° W 22:05:04 75° N 22:08:04 10° ENE
Cosmos 1328 4.3 22:04:04 21° SSW 22:06:36 58° WNW 22:10:35 10° N
Cosmos 1331 Rocket 4.3 22:04:06 12° SSW 22:09:04 69° WNW 22:14:23 10° NNE
In-Cosmos 22 Rocket 4.5 22:06:28 26° SSE 22:09:25 53° E 22:14:45 10° NNE
X-37B 2.3 22:11:57 10° WSW 22:12:57 18° WSW 22:12:57 18° WSW
Cosmos 1408 2.3 22:15:25 39° SSW 22:16:36 85° WNW 22:20:04 10° N
Lacrosse 5 3.7 22:15:29 10° W 22:18:35 16° WSW 22:20:08 14° SW
USA 234 3.3 22:14:25 20° SE 22:19:05 70° SW 22:25:40 10° WNW
Cosmos 1726 Rocket 4.4 22:15:05 10° NNW 22:19:10 42° W 22:21:23 23° SSW
Terra 4.0 22:17:38 10° SW 22:20:40 17° W 22:23:42 10° NW
ATLAS 2AS CENTAUR R/B 4.4 22:16:56 10° WNW 22:21:26 19° WSW 22:25:25 11° SW
FALCON 9 DEB 4.2 22:19:14 10° WNW 22:22:23 42° N 22:25:31 10° E
Cosmos 1833 Rocket 3.2 22:18:26 10° SW 22:23:58 58° WNW 22:29:33 10° NNE
Cosmos 2322 Rocket 3.8 22:19:36 10° NNW 22:24:32 29° NE 22:29:28 10° ESE
Cosmos 1867 3.6 22:22:33 10° NW 22:28:04 86° NE 22:31:17 26° SE
Cosmos 2278 3.8 22:23:14 10° NNW 22:28:59 74° ENE 22:32:24 25° SE
SL-8 Rocket 4.1 22:23:51 10° NNW 22:30:07 75° W 22:33:46 26° S
ATLAS 5 CENTAUR R/B 2.7 22:30:25 22° ESE 22:30:25 22° ESE 22:33:21 10° ENE
Cosmos 1812 Rocket 4.2 22:28:07 10° N 22:32:27 47° ENE 22:34:25 28° SE
ALOS 2 2.6 22:32:45 34° SSE 22:34:37 82° ENE 22:39:03 10° NNW
Cosmos 1302 Rocket 4.0 22:31:55 22° SSW 22:35:21 80° WNW 22:40:35 10° NNE
Cosmos 2218 Rocket 4.1 22:35:48 10° NNW 22:42:11 73° W 22:45:53 27° S
Cosmos 2366 rocket 4.2 22:39:40 10° NNW 22:45:57 69° W 22:49:35 27° S
Aureole 1 Rocket 4.5 22:39:30 10° NNW 22:46:22 78° ENE 22:51:53 23° SSE
Cosmos 2082 Rocket 2.2 22:42:49 21° SSW 22:46:44 85° WNW 22:52:29 10° NNE
Cosmos 1602 Rocket 3.7 22:45:32 36° SSE 22:47:01 57° E 22:51:17 10° NNE
H-2A R/B 3.4 22:45:15 10° NNE 22:49:29 89° WNW 22:51:09 36° SSW
Cosmos 2058 Rocket 4.2 22:49:10 10° NNW 22:53:08 33° W 22:55:04 23° SW
Cosmos 1825 2.5 22:58:50 36° SW 23:00:05 58° WNW 23:03:49 10° N
Cosmos 2360 Rocket 3.5 22:58:57 10° NNW 23:04:11 36° NE 23:09:23 10° ESE
ERS-2 2.1 23:01:31 10° NNE 23:05:06 67° ESE 23:05:53 49° SSE
Cosmos-2242 2.9 23:02:29 10° N 23:06:46 81° E 23:08:16 39° SSE
Cosmos 1626 Rocket 4.0 23:10:22 30° SW 23:12:16 53° WNW 23:16:33 10° N
Cosmos 1869 4.3 23:12:32 10° NNW 23:16:02 33° W 23:17:08 28° SW
Cosmos 1606 2.7 23:13:18 10° N 23:17:10 74° E 23:18:18 43° SSE
Cosmos 2058 3.5 23:16:21 34° SE 23:17:41 47° E 23:21:43 10° NNE
BREEZE-M DEB (TANK) 4.1 23:14:30 10° W 23:18:13 82° SSW 23:34:33 10° ESE
Cosmos 1934 Rocket 4.3 23:12:40 10° N 23:18:40 58° ENE 23:22:23 24° SSE
Cosmos 1825 Rocket 3.7 23:22:58 37° SSE 23:24:27 61° E 23:28:44 10° NNE
ADEOS Rocket 3.8 23:20:28 26° SSW 23:24:34 54° W 23:32:03 10° NNW
Cosmos 1633 2.8 23:25:15 41° SW 23:26:07 54° WNW 23:29:32 10° N
USA 267 4.0 23:20:33 10° ENE 23:26:54 55° NNW 23:33:14 10° W
CRYOSAT 2 4.5 23:25:28 32° SSE 23:27:44 71° E 23:32:37 10° N
SL-16 R/B 2.1 23:24:16 10° NNW 23:29:59 84° WSW 23:33:07 28° SSE
Cosmos 1980 Rocket 3.6 23:32:00 10° NW 23:36:21 23° WSW 23:38:21 19° SW
SJ 16-02 1.3 23:32:55 10° NNW 23:37:22 90° NNE 23:39:13 35° SSE
USA 276 1.9 23:37:51 10° WNW 23:40:52 80° N 23:43:53 10° E
Meteor 2-2 Rocket 4.3 23:36:29 10° NNW 23:42:31 90° E 23:45:55 28° S
Cosmos 1821 Rocket 4.4 23:36:37 10° NNW 23:42:41 52° W 23:45:54 27° SSW
Cosmos 2219 Rocket 3.7 23:39:25 10° NNW 23:44:34 34° NE 23:49:41 10° ESE
Cosmos 1340 Rocket 2.9 23:48:44 41° SSE 23:49:56 66° E 23:53:52 10° NNE
CZ-2D R/B 4.0 23:46:34 10° NE 23:50:18 19° E 23:53:35 12° SE
